Meteo pe oră la Abercanaid

Astăzi, 24 Iulie, Sâmbătă

Timp Temperatura Precipitaţii Vânt Presiune Umiditate
00:00 +15°C° 0 mm 6 m/s 733 mmHg 81%
01:00 +15°C° 0.2 mm 6 m/s 733 mmHg 83%
02:00 +14°C° 0.2 mm 6 m/s 733 mmHg 84%
03:00 +14°C° 0.2 mm 6 m/s 732 mmHg 86%
04:00 +14°C° 0.4 mm 6 m/s 732 mmHg 87%
05:00 +13°C° 0.4 mm 6 m/s 732 mmHg 88%
06:00 +13°C° 0.4 mm 6 m/s 732 mmHg 90%
07:00 +14°C° 0.1 mm 6 m/s 732 mmHg 89%
08:00 +14°C° 0.1 mm 7 m/s 732 mmHg 88%
09:00 +15°C° 0.1 mm 7 m/s 732 mmHg 88%
10:00 +16°C° 0.1 mm 6 m/s 732 mmHg 87%
11:00 +16°C° 0.1 mm 6 m/s 732 mmHg 86%
12:00 +17°C° 0.1 mm 5 m/s 732 mmHg 85%
13:00 +17°C° 0.2 mm 5 m/s 732 mmHg 85%
14:00 +18°C° 0.2 mm 4 m/s 732 mmHg 86%
15:00 +18°C° 0.2 mm 4 m/s 732 mmHg 87%
16:00 +18°C° 0.3 mm 4 m/s 732 mmHg 87%
17:00 +18°C° 0.3 mm 4 m/s 732 mmHg 87%
18:00 +18°C° 0.3 mm 4 m/s 732 mmHg 87%
19:00 +18°C° 0.5 mm 3 m/s 732 mmHg 89%
20:00 +17°C° 0.5 mm 3 m/s 732 mmHg 91%
21:00 +16°C° 0.5 mm 3 m/s 732 mmHg 93%
22:00 +16°C° 0.2 mm 3 m/s 732 mmHg 94%
23:00 +14°C° 0.2 mm 3 m/s 732 mmHg 95%

Mâine, 25 Iulie, Duminică

Timp Temperatura Precipitaţii Vânt Presiune Umiditate
00:00 +14°C° 0.2 mm 3 m/s 732 mmHg 95%
01:00 +14°C° 0.2 mm 3 m/s 732 mmHg 96%
02:00 +13°C° 0.2 mm 3 m/s 732 mmHg 96%
03:00 +13°C° 0.2 mm 3 m/s 732 mmHg 97%
04:00 +14°C° 0.1 mm 2 m/s 732 mmHg 96%
05:00 +14°C° 0.1 mm 2 m/s 732 mmHg 96%
06:00 +14°C° 0.1 mm 2 m/s 732 mmHg 96%
07:00 +15°C° 0 mm 2 m/s 732 mmHg 93%
08:00 +16°C° 0 mm 2 m/s 733 mmHg 89%
09:00 +17°C° 0 mm 2 m/s 733 mmHg 86%
10:00 +18°C° 0.1 mm 2 m/s 733 mmHg 81%
11:00 +19°C° 0.1 mm 2 m/s 733 mmHg 77%
12:00 +20°C° 0.1 mm 2 m/s 733 mmHg 72%
13:00 +20°C° 0.2 mm 2 m/s 733 mmHg 70%
14:00 +21°C° 0.2 mm 2 m/s 733 mmHg 69%
15:00 +21°C° 0.2 mm 2 m/s 733 mmHg 68%
16:00 +21°C° 0.2 mm 2 m/s 733 mmHg 71%
17:00 +20°C° 0.2 mm 3 m/s 733 mmHg 75%
18:00 +20°C° 0.2 mm 3 m/s 733 mmHg 78%
19:00 +18°C° 0.1 mm 3 m/s 733 mmHg 82%
20:00 +17°C° 0.1 mm 2 m/s 733 mmHg 86%
21:00 +15°C° 0.1 mm 2 m/s 733 mmHg 90%
22:00 +15°C° 0 mm 2 m/s 733 mmHg 90%
23:00 +14°C° 0 mm 2 m/s 733 mmHg 90%

Poimâine, 26 Iulie, Luni

Timp Temperatura Precipitaţii Vânt Presiune Umiditate
00:00 +13°C° 0 mm 2 m/s 733 mmHg 91%
01:00 +13°C° 0 mm 2 m/s 733 mmHg 91%
02:00 +13°C° 0 mm 2 m/s 733 mmHg 91%
03:00 +13°C° 0 mm 2 m/s 733 mmHg 92%
04:00 +13°C° 0 mm 2 m/s 733 mmHg 91%
05:00 +14°C° 0 mm 1 m/s 734 mmHg 90%
06:00 +15°C° 0 mm 1 m/s 734 mmHg 89%
07:00 +16°C° 0 mm 1 m/s 734 mmHg 83%
08:00 +19°C° 0 mm 1 m/s 734 mmHg 78%
09:00 +20°C° 0 mm 2 m/s 734 mmHg 73%
10:00 +20°C° 0 mm 2 m/s 734 mmHg 70%
11:00 +21°C° 0 mm 2 m/s 734 mmHg 68%
12:00 +22°C° 0 mm 3 m/s 734 mmHg 66%
13:00 +22°C° 0.3 mm 3 m/s 734 mmHg 65%
14:00 +22°C° 0.3 mm 3 m/s 734 mmHg 65%
15:00 +22°C° 0.3 mm 4 m/s 734 mmHg 64%
16:00 +21°C° 0.1 mm 3 m/s 734 mmHg 67%
17:00 +20°C° 0.1 mm 3 m/s 733 mmHg 70%
18:00 +20°C° 0.1 mm 2 m/s 733 mmHg 74%
19:00 +18°C° 0 mm 2 m/s 733 mmHg 77%
20:00 +16°C° 0 mm 2 m/s 733 mmHg 80%
21:00 +15°C° 0 mm 1 m/s 733 mmHg 83%
22:00 +14°C° 0 mm 1 m/s 733 mmHg 83%
23:00 +14°C° 0 mm 1 m/s 733 mmHg 83%

27 Iulie, Marţi

Timp Temperatura Precipitaţii Vânt Presiune Umiditate
00:00 +14°C° 0 mm 1 m/s 733 mmHg 82%
01:00 +14°C° 0 mm 1 m/s 733 mmHg 83%
02:00 +13°C° 0 mm 1 m/s 733 mmHg 84%
03:00 +13°C° 0 mm 1 m/s 733 mmHg 85%
04:00 +14°C° 0 mm 1 m/s 733 mmHg 84%
05:00 +13°C° 0 mm 0 m/s 733 mmHg 84%
06:00 +14°C° 0 mm 0 m/s 733 mmHg 83%
07:00 +16°C° 0 mm 1 m/s 734 mmHg 79%
08:00 +18°C° 0 mm 1 m/s 734 mmHg 75%
09:00 +20°C° 0 mm 1 m/s 734 mmHg 70%
10:00 +19°C° 0.2 mm 2 m/s 734 mmHg 71%
11:00 +20°C° 0.2 mm 3 m/s 734 mmHg 71%
12:00 +20°C° 0.2 mm 4 m/s 734 mmHg 71%
13:00 +20°C° 0.6 mm 4 m/s 733 mmHg 74%
14:00 +19°C° 0.6 mm 5 m/s 733 mmHg 77%
15:00 +19°C° 0.6 mm 6 m/s 733 mmHg 79%
16:00 +17°C° 0.2 mm 6 m/s 733 mmHg 80%
17:00 +16°C° 0.2 mm 6 m/s 733 mmHg 80%
18:00 +16°C° 0.2 mm 6 m/s 733 mmHg 81%
19:00 +14°C° 0 mm 5 m/s 734 mmHg 84%
20:00 +13°C° 0 mm 4 m/s 734 mmHg 87%
21:00 +11°C° 0 mm 3 m/s 734 mmHg 90%
22:00 +11°C° 0 mm 3 m/s 734 mmHg 91%
23:00 +11°C° 0 mm 3 m/s 734 mmHg 92%

28 Iulie, Miercuri

Timp Temperatura Precipitaţii Vânt Presiune Umiditate
00:00 +11°C° 0 mm 3 m/s 734 mmHg 93%
01:00 +11°C° 0 mm 3 m/s 734 mmHg 93%
02:00 +10°C° 0 mm 3 m/s 734 mmHg 93%
03:00 +10°C° 0 mm 2 m/s 733 mmHg 93%
04:00 +10°C° 0 mm 2 m/s 734 mmHg 92%
05:00 +12°C° 0 mm 2 m/s 734 mmHg 92%
06:00 +12°C° 0 mm 2 m/s 734 mmHg 91%
07:00 +12°C° 0 mm 3 m/s 734 mmHg 83%
08:00 +13°C° 0 mm 4 m/s 735 mmHg 76%
09:00 +15°C° 0 mm 5 m/s 735 mmHg 68%
10:00 +15°C° 0.1 mm 6 m/s 735 mmHg 66%
11:00 +16°C° 0.1 mm 6 m/s 735 mmHg 64%
12:00 +16°C° 0.1 mm 6 m/s 735 mmHg 61%
13:00 +17°C° 0 mm 7 m/s 735 mmHg 62%
14:00 +17°C° 0 mm 7 m/s 735 mmHg 63%
15:00 +17°C° 0 mm 7 m/s 735 mmHg 63%
16:00 +16°C° 0.1 mm 7 m/s 735 mmHg 68%
17:00 +15°C° 0.1 mm 6 m/s 735 mmHg 73%
18:00 +15°C° 0.1 mm 6 m/s 735 mmHg 78%
19:00 +14°C° 0 mm 5 m/s 735 mmHg 82%
20:00 +13°C° 0 mm 5 m/s 734 mmHg 87%
21:00 +12°C° 0 mm 4 m/s 734 mmHg 91%
22:00 +12°C° 0 mm 4 m/s 734 mmHg 92%
23:00 +12°C° 0 mm 4 m/s 733 mmHg 93%

29 Iulie, Joi

Timp Temperatura Precipitaţii Vânt Presiune Umiditate
00:00 +12°C° 0 mm 4 m/s 733 mmHg 94%
01:00 +12°C° 0.5 mm 5 m/s 732 mmHg 94%
02:00 +13°C° 0.5 mm 6 m/s 732 mmHg 94%
03:00 +12°C° 0.5 mm 7 m/s 731 mmHg 95%
04:00 +12°C° 0.2 mm 7 m/s 731 mmHg 94%
05:00 +12°C° 0.2 mm 7 m/s 730 mmHg 93%
06:00 +12°C° 0.2 mm 7 m/s 730 mmHg 92%
07:00 +14°C° 0.3 mm 7 m/s 730 mmHg 90%
08:00 +14°C° 0.3 mm 7 m/s 730 mmHg 88%
09:00 +15°C° 0.3 mm 8 m/s 730 mmHg 86%
10:00 +13°C° 0.5 mm 8 m/s 729 mmHg 88%
11:00 +13°C° 0.5 mm 9 m/s 729 mmHg 89%
12:00 +12°C° 0.5 mm 9 m/s 729 mmHg 91%
13:00 +13°C° 0.9 mm 8 m/s 729 mmHg 89%
14:00 +13°C° 0.9 mm 8 m/s 729 mmHg 87%
15:00 +15°C° 0.9 mm 7 m/s 729 mmHg 85%
16:00 +15°C° 0.2 mm 6 m/s 729 mmHg 84%
17:00 +14°C° 0.2 mm 5 m/s 729 mmHg 82%
18:00 +14°C° 0.2 mm 4 m/s 729 mmHg 81%
19:00 +13°C° 0 mm 4 m/s 730 mmHg 84%
20:00 +11°C° 0 mm 3 m/s 730 mmHg 87%
21:00 +10°C° 0 mm 3 m/s 730 mmHg 90%
22:00 +10°C° 0 mm 3 m/s 730 mmHg 90%
23:00 +10°C° 0 mm 3 m/s 730 mmHg 90%
Arată mai mult

Formular de consimțământ

Meteoprog și furnizorii noștri de servicii pot stoca și accesa date personale, precum cookies, identificatori de dispozitiv sau alte tehnologii similare pe dispozitivul dumneavoastră și procesa astfel de date pentru a personaliza conținutul și reclamele, dar și pentru a oferi caracteristici de social media și pentru a analiza traficul.

  • Stocarea și/sau accesarea informațiilor pe dispozitivul dumneavoastră

    Cookies, identificatori de dispozitiv sau alte informații pot fi stocate sau accesate pe dispozitiv în scopurile indicate mai sus.

  • Reclame și conținut personalizat, evaluarea reclamelor și a conținutului, informații despre audiențe și dezvoltarea produselor

    Reclamele și conținutul pot fi personalizate pe baza unui profil. Pot fi adăugate date suplimentare pentru a personaliza mai bine reclamele și conținutul. Performanța reclamelor și conținutului poate fi măsurată. Pot fi obținute informații despre utilizatorii care au văzut reclamele și conținutul. Aceste date pot fi utilizate pentru a dezvolta sau îmbunătăți experiența utilizatorilor, sistemele și software-ul.

Dând clic pe ‘Sunt de acord’, permiteți utilizarea cookie-urilor menționate, a identificatorilor de dispozitiv, balizelor web sau altor tehnologii similare. Setările pot fi modificate din browser-ul dispozitivului dumneavoastră.

În anumite scopuri, interesele legitime pot prima asupra consimțământului. Puteți citi mai multe informații în acest sens în Politica privind Confidențialitatea Datelor și Cookie.